Weather History for KUZA - February, 2013

Change the Weather History Date:

Monday, February 18, 2013

  Actual Average Record
Temperature  
Mean Temperature 38 °F -  
Max Temperature 54 °F 53 °F 75 °F (2011)
Min Temperature 21 °F 34 °F 6 °F (1958)
Degree Days  
Heating Degree Days 28    
Moisture  
Dew Point 22 °F    
Average Humidity 56    
Maximum Humidity 88    
Minimum Humidity 31    
Precipitation  
Precipitation 0.00 in - - ()
Sea Level Pressure  
Sea Level Pressure 30.33 in    
Wind  
Wind Speed 3 mph (SSW)    
Max Wind Speed 13 mph    
Max Gust Speed 18 mph    
Visibility 10 miles    
Events      
Averages and records for this station are not official NWS values.
T = Trace of Precipitation, MM = Missing Value Source: NWS Daily Summary

Daily Weather History Graph

Daily Weather History Graph

Search for Another Location

Airport or City:

Trip Planner

Search our weather history database for the weather conditions in past years. The results will help you decide how hot, cold, wet, or windy it might be!

Date:

Astronomy

Feb. 18, 2013 Rise Set
Actual Time 7:06 AM EST 6:10 PM EST
Civil Twilight 6:40 AM EST 6:35 PM EST
Nautical Twilight 6:11 AM EST 7:05 PM EST
Astronomical Twilight 5:41 AM EST 7:34 PM EST
Moon 12:01 PM EST (2/18) 1:38 AM EST (2/18)
Length of Visible Light 11h 55m
Length of Day
11h 03m
First Quarter, 58% of the Moon is Illuminated
Feb 18
First Quarter
Feb 25
Full
Mar 4
Last Quarter
Mar 11
New
Mar 19
First Quarter

Hourly Weather History & Observations

Time (EST) Temp. Windchill Dew Point Humidity Pressure Visibility Wind Dir Wind Speed Gust Speed Precip Events Conditions
12:54 AM 26.1 °F - 18.0 °F 71% 30.30 in 10.0 mi Calm Calm - N/A   Clear
1:54 AM 24.1 °F - 17.1 °F 75% 30.33 in 10.0 mi Calm Calm - N/A   Clear
2:54 AM 23.0 °F 18.4 °F 18.0 °F 81% 30.34 in 10.0 mi SW 3.5 mph - N/A   Clear
3:54 AM 21.9 °F - 18.0 °F 85% 30.34 in 10.0 mi Calm Calm - N/A   Clear
4:54 AM 21.0 °F - 17.1 °F 85% 30.35 in 10.0 mi Calm Calm - N/A   Clear
5:54 AM 21.9 °F - 18.0 °F 85% 30.37 in 10.0 mi Calm Calm - N/A   Clear
6:54 AM 21.0 °F - 17.1 °F 85% 30.39 in 10.0 mi Calm Calm - N/A   Clear
7:54 AM 24.1 °F - 21.0 °F 88% 30.40 in 10.0 mi Calm Calm - N/A   Clear
8:54 AM 32.0 °F - 21.9 °F 66% 30.41 in 10.0 mi Calm Calm - N/A   Clear
9:54 AM 39.0 °F 33.4 °F 19.9 °F 46% 30.42 in 10.0 mi South 8.1 mph - N/A   Clear
10:54 AM 44.1 °F 40.8 °F 19.9 °F 38% 30.41 in 10.0 mi Variable 5.8 mph - N/A   Clear
11:54 AM 46.9 °F - 24.1 °F 41% 30.39 in 10.0 mi SSW 12.7 mph - N/A   Clear
12:54 PM 50.0 °F - 24.1 °F 36% 30.35 in 10.0 mi SSW 8.1 mph - N/A   Clear
1:54 PM 52.0 °F - 24.1 °F 34% 30.33 in 10.0 mi South 10.4 mph - N/A   Clear
2:54 PM 53.1 °F - 24.1 °F 32% 30.31 in 10.0 mi SW 5.8 mph - N/A   Clear
3:54 PM 54.0 °F - 24.1 °F 31% 30.29 in 10.0 mi South 5.8 mph - N/A   Clear
4:54 PM 53.1 °F - 26.1 °F 35% 30.29 in 10.0 mi South 8.1 mph 18.4 mph N/A   Clear
5:54 PM 50.0 °F - 26.1 °F 39% 30.29 in 10.0 mi SSW 8.1 mph - N/A   Clear
6:54 PM 48.0 °F - 26.1 °F 42% 30.29 in 10.0 mi SSE 3.5 mph - N/A   Clear
7:54 PM 46.0 °F 43.1 °F 25.0 °F 44% 30.29 in 10.0 mi SSE 5.8 mph - N/A   Unknown
8:54 PM 44.1 °F 41.5 °F 26.1 °F 49% 30.27 in 10.0 mi Variable 4.6 mph - N/A   Clear
9:54 PM 42.1 °F 37.1 °F 26.1 °F 53% 30.27 in 10.0 mi South 8.1 mph - N/A   Clear
10:54 PM 42.1 °F 36.6 °F 26.1 °F 53% 30.26 in 10.0 mi South 9.2 mph - N/A   Clear
11:54 PM 39.0 °F 32.8 °F 26.1 °F 60% 30.24 in 10.0 mi SSW 9.2 mph - N/A   Clear